Waarnemingen

Advertentie
Mijn weer
D15-FA-1, Nederland (6201): temperatuur & dauwpunt: 15.01.2017 11:00:00 - 21.01.2017 11:00:00 (CET)D15-FA-1, Nederland (6201): windsnelheid & windstoten: 15.01.2017 11:00:00 - 21.01.2017 11:00:00 (CET)D15-FA-1, Nederland (6201): windrichting: 15.01.2017 11:00:00 - 21.01.2017 11:00:00 (CET)D15-FA-1, Nederland (6201): luchtdruk: 15.01.2017 11:00:00 - 21.01.2017 11:00:00 (CET)D15-FA-1, Nederland (6201): zicht: 15.01.2017 11:00:00 - 21.01.2017 11:00:00 (CET)
Datum & Tijd tt [°C] td [°C] ff [km/u] ff [kn] fx [km/u] fx [kn] dd ppp [hPa] vv [km]
21.01.2017 11:00:00 6,4 2,7 22 12 25 14 O 1032,1 10
21.01.2017 10:00:00 6,3 3,0 18 10 25 14 OZO 1032,3 10
21.01.2017 09:00:00 6,1 2,9 14 8 25 14 O 1032,4 43
21.01.2017 08:00:00 6,0 3,0 15 8 22 12 OZO 1032,4 10
21.01.2017 07:00:00 5,8 2,8 11 6 22 12 OZO 1032,6 48
21.01.2017 06:00:00 5,9 2,9 15 8 22 12 OZO 1032,8 10
21.01.2017 05:00:00 5,9 2,7 9 5 14 8 O 1033,1 10
21.01.2017 04:00:00 5,7 2,4 9 5 18 10 OZO 1033,6 10
21.01.2017 03:00:00 5,7 2,3 8 4 18 10 ONO 1033,9 10
21.01.2017 02:00:00 5,9 2,5 8 4 18 10 ONO 1034,0 10
21.01.2017 01:00:00 6,0 2,7 5 3 11 6 ZO 1034,5 10
21.01.2017 00:00:00 5,8 2,6 8 4 14 8 O 1034,9 10
20.01.2017 23:00:00 5,8 2,6 8 4 11 6 - 1035,2 10
20.01.2017 22:00:00 5,8 2,5 5 3 18 10 - 1035,4 10
20.01.2017 21:00:00 6,0 2,1 5 3 14 8 NNO 1035,4 10
20.01.2017 20:00:00 6,1 2,3 8 4 14 8 N 1035,4 10
20.01.2017 19:00:00 6,1 2,4 13 7 18 10 N 1035,3 10
20.01.2017 18:00:00 6,5 2,8 13 7 14 8 N 1035,4 10
20.01.2017 17:00:00 6,3 3,1 5 3 7 4 NNO 1035,5 10
20.01.2017 16:00:00 6,2 3,4 2 1 14 8 NNW 1035,5 10
20.01.2017 15:00:00 6,2 3,6 9 5 14 8 - 1035,6 10
20.01.2017 14:00:00 6,1 3,7 8 4 14 8 - 1035,9 10
20.01.2017 13:00:00 6,0 4,0 5 3 11 6 WNW 1036,3 10
20.01.2017 12:00:00 6,0 3,7 5 3 14 8 - 1036,7 10
20.01.2017 11:00:00 6,0 3,7 5 3 11 6 - 1036,8 10
20.01.2017 10:00:00 5,8 4,1 5 3 11 6 WNW 1036,6 10
20.01.2017 09:00:00 5,5 4,4 5 3 14 8 NW 1036,3 5
20.01.2017 08:00:00 5,6 4,4 8 4 14 8 NW 1036,1 9
20.01.2017 07:00:00 5,9 4,1 8 4 14 8 NW 1036,2 10
20.01.2017 06:00:00 5,8 4,2 8 4 14 8 WNW 1036,3 10
20.01.2017 05:00:00 5,7 4,4 13 7 14 8 WNW 1036,5 9
20.01.2017 04:00:00 6,1 4,1 11 6 11 6 NW 1036,5 10
20.01.2017 03:00:00 6,0 4,3 9 5 14 8 WNW 1036,6 7
20.01.2017 02:00:00 6,1 4,1 9 5 18 10 W 1036,7 10
20.01.2017 01:00:00 6,1 4,6 8 4 18 10 W 1037,0 5
20.01.2017 00:00:00 6,3 4,5 13 7 14 8 W 1037,2 10
19.01.2017 23:00:00 6,8 3,7 5 3 18 10 W 1037,3 10
19.01.2017 22:00:00 7,0 3,5 5 3 14 8 - 1037,2 10
19.01.2017 21:00:00 6,9 3,0 8 4 14 8 - 1037,3 10
19.01.2017 20:00:00 7,0 3,1 4 2 14 8 - 1037,1 10
19.01.2017 19:00:00 7,1 3,4 8 4 14 8 WNW 1036,9 10
19.01.2017 18:00:00 7,3 3,4 9 5 14 8 NW 1036,9 10
19.01.2017 17:00:00 7,3 4,2 5 3 11 6 NW 1036,9 10
19.01.2017 16:00:00 7,0 4,6 7 4 14 8 WNW 1036,7 40
19.01.2017 15:00:00 6,7 5,8 8 4 11 6 WNW 1036,7 10
19.01.2017 14:00:00 6,8 5,9 11 6 14 8 NW 1036,9 8
19.01.2017 13:00:00 6,9 6,2 11 6 14 8 W 1037,4 5
19.01.2017 12:00:00 7,0 6,4 13 7 18 10 Z 1037,7 10
19.01.2017 11:00:00 7,0 6,2 11 6 18 10 - 1037,8 10
19.01.2017 10:00:00 6,9 6,1 11 6 18 10 - 1037,6 8
19.01.2017 09:00:00 7,1 6,2 14 8 22 12 WNW 1037,3 10
19.01.2017 08:00:00 7,0 5,8 11 6 22 12 W 1036,9 11
19.01.2017 07:00:00 6,9 6,2 14 8 22 12 W 1036,5 12
19.01.2017 06:00:00 6,9 6,4 11 6 22 12 ZZW 1036,6 9
19.01.2017 05:00:00 6,8 6,5 11 6 22 12 - 1036,8 5
19.01.2017 04:00:00 6,7 6,4 14 8 22 12 Z 1036,9 2,5
19.01.2017 03:00:00 6,6 6,1 7 4 18 10 ZZW 1036,9 2,2
19.01.2017 02:00:00 6,6 6,1 14 8 22 12 WNW 1037,1 4,6
19.01.2017 01:00:00 6,5 6,1 16 9 25 14 - 1037,1 3,8
19.01.2017 00:00:00 6,5 5,9 18 10 22 12 - 1037,2 4,0
18.01.2017 23:00:00 6,4 5,7 18 10 22 12 - 1037,3 8
18.01.2017 22:00:00 6,4 5,6 22 12 25 14 WZW 1037,3 6
18.01.2017 21:00:00 6,3 5,5 21 11 25 14 W 1037,3 8
18.01.2017 20:00:00 6,2 5,2 18 10 25 14 - 1037,5 8
18.01.2017 19:00:00 6,0 4,9 21 11 29 16 - 1037,4 8
18.01.2017 18:00:00 5,7 5,0 24 13 29 16 - 1037,1 3,2
18.01.2017 17:00:00 5,7 4,7 24 13 29 16 W 1037,3 8
18.01.2017 16:00:00 5,6 4,7 26 14 29 16 W 1037,2 6
18.01.2017 15:00:00 5,4 4,7 28 15 32 18 WZW 1037,1 2,8
18.01.2017 14:00:00 5,9 4,0 31 17 32 18 WZW 1037,1 10
18.01.2017 13:00:00 5,8 3,3 29 16 32 18 WZW 1037,4 10
18.01.2017 12:00:00 5,9 2,6 31 17 32 18 WZW 1037,5 10
18.01.2017 11:00:00 5,9 2,0 34 18 36 19 ZW 1037,7 10
18.01.2017 10:00:00 5,8 1,6 34 18 36 19 ZW 1037,1 10
18.01.2017 09:00:00 5,9 1,4 34 18 32 18 ZW 1036,8 10
18.01.2017 08:00:00 5,8 1,0 34 18 36 19 WZW 1036,4 10
18.01.2017 07:00:00 5,7 -0,3 34 18 32 18 ZW 1036,1 10
18.01.2017 06:00:00 5,7 -1,7 31 17 36 19 ZW 1036,1 10
18.01.2017 05:00:00 5,5 -3,2 29 16 43 23 ZW 1036,7 10
18.01.2017 04:00:00 5,5 -2,4 28 15 40 21 ZW 1036,2 10
18.01.2017 03:00:00 5,5 -1,3 35 19 40 21 ZW 1036,6 10
18.01.2017 02:00:00 5,5 -0,5 35 19 40 21 ZW 1036,6 10
18.01.2017 01:00:00 5,5 0,8 29 16 36 19 ZW 1037,0 10
18.01.2017 00:00:00 5,6 1,1 31 17 40 21 ZW 1036,8 10
17.01.2017 23:00:00 5,6 1,1 31 17 40 21 ZW 1036,8 10
17.01.2017 22:00:00 5,5 -0,1 37 20 40 21 ZW 1036,9 10
17.01.2017 21:00:00 5,3 0,3 39 21 40 21 ZW 1036,6 10
17.01.2017 20:00:00 5,3 0,0 29 16 36 19 ZZW 1036,5 10
17.01.2017 19:00:00 5,2 -0,6 37 20 36 19 ZW 1036,2 10
17.01.2017 18:00:00 5,1 0,0 35 19 36 19 ZW 1036,2 10
17.01.2017 17:00:00 5,3 0,8 26 14 40 21 ZZW 1036,3 10
17.01.2017 16:00:00 5,3 0,7 35 19 40 21 ZW 1035,8 10
17.01.2017 15:00:00 5,3 0,5 34 18 36 19 ZW 1036,0 10
17.01.2017 14:00:00 5,3 0,0 29 16 36 19 ZW 1036,2 10
17.01.2017 13:00:00 5,0 -1,6 29 16 36 19 ZZW 1036,1 10
17.01.2017 12:00:00 5,0 -3,1 31 17 32 18 ZW 1036,2 10
17.01.2017 11:00:00 5,0 -2,5 31 17 32 18 ZW 1036,2 10
17.01.2017 10:00:00 5,0 -2,4 28 15 32 18 ZZW 1035,7 10
17.01.2017 09:00:00 5,0 -4,4 29 16 32 18 ZW 1035,4 10
17.01.2017 08:00:00 4,9 -5,1 24 13 32 18 ZZW 1035,0 10
17.01.2017 07:00:00 4,9 -4,6 26 14 - - ZZW 1034,3 10
17.01.2017 06:00:00 5,0 -4,5 22 12 29 16 Z 1034,4 10
17.01.2017 05:00:00 4,9 -5,1 21 11 29 16 ZZW 1034,6 10
17.01.2017 04:00:00 5,0 -4,2 22 12 - - Z 1034,0 10
17.01.2017 03:00:00 4,8 -4,4 22 12 25 14 Z 1034,2 10
17.01.2017 02:00:00 4,9 -2,7 24 13 25 14 Z 1033,6 10
17.01.2017 01:00:00 4,9 -4,2 26 14 25 14 Z 1033,1 10
17.01.2017 00:00:00 4,7 -1,4 26 14 32 18 Z 1033,0 10
16.01.2017 23:00:00 5,0 -0,1 24 13 25 14 Z 1032,7 10
16.01.2017 22:00:00 5,1 -0,3 21 11 25 14 ZZO 1032,4 10
16.01.2017 21:00:00 5,0 0,2 16 9 25 14 ZZO 1031,9 10
16.01.2017 20:00:00 5,1 0,6 26 14 25 14 ZZO 1031,4 10
16.01.2017 19:00:00 5,6 -2,5 15 8 18 10 O 1030,6 10
16.01.2017 18:00:00 5,4 -3,6 16 9 18 10 O 1030,0 10
16.01.2017 17:00:00 5,4 -2,9 16 9 18 10 O 1029,8 10
16.01.2017 16:00:00 5,7 -3,3 11 6 14 8 O 1029,3 10
16.01.2017 15:00:00 5,6 -2,1 8 4 11 6 ONO 1029,1 10
16.01.2017 14:00:00 5,6 -1,1 8 4 18 10 ONO 1028,8 10
16.01.2017 13:00:00 5,8 -1,1 5 3 7 4 ONO 1028,9 10
16.01.2017 12:00:00 5,8 -0,5 4 2 - - ONO 1028,9 42
16.01.2017 11:00:00 - - - - - - - - -
16.01.2017 10:00:00 5,3 -0,2 11 6 14 8 ONO 1028,0 10
16.01.2017 09:00:00 5,2 -0,1 15 8 22 12 O 1027,5 10
16.01.2017 08:00:00 5,5 0,5 8 4 18 10 NNO 1027,1 10
16.01.2017 07:00:00 5,5 -0,8 11 6 14 8 NO 1026,6 10
16.01.2017 06:00:00 5,4 -1,0 11 6 18 10 NNO 1026,2 10
16.01.2017 05:00:00 5,4 -1,2 15 8 14 8 - 1026,1 10
16.01.2017 04:00:00 5,5 0,2 13 7 14 8 NNO 1026,0 10
16.01.2017 03:00:00 5,4 0,5 13 7 14 8 NNO 1025,9 10
16.01.2017 02:00:00 5,3 0,5 16 9 22 12 NNO 1025,4 10
16.01.2017 01:00:00 5,3 0,9 15 8 22 12 N 1025,2 10
16.01.2017 00:00:00 5,3 1,7 11 6 14 8 NNO 1025,3 10
15.01.2017 23:00:00 5,3 1,7 15 8 14 8 NNO 1024,9 10
15.01.2017 22:00:00 5,3 1,1 9 5 18 10 NNO 1024,4 10
15.01.2017 21:00:00 5,3 1,0 13 7 18 10 NNO 1024,0 10
15.01.2017 20:00:00 5,2 1,7 11 6 14 8 NNO 1023,2 10
15.01.2017 19:00:00 5,2 1,6 11 6 11 6 NNO 1022,8 10
15.01.2017 18:00:00 5,1 1,5 9 5 11 6 - 1022,4 10
15.01.2017 17:00:00 4,9 1,1 5 3 11 6 ONO 1021,6 10
15.01.2017 16:00:00 4,9 1,3 5 3 7 4 NNO 1021,1 10
15.01.2017 15:00:00 4,8 1,2 4 2 14 8 - 1020,4 10
15.01.2017 14:00:00 4,8 1,0 9 5 14 8 - 1020,1 10
15.01.2017 13:00:00 4,8 1,0 8 4 14 8 NW 1020,0 10
15.01.2017 12:00:00 4,8 0,9 5 3 14 8 - 1019,9 10
15.01.2017 11:00:00 4,9 0,7 8 4 14 8 - 1019,7 10

tt = temperatuur
td = dauwpunt
ff = windsnelheid
fx = windstoten
dd = windrichting
ppp = luchtdruk
vv = zicht

Weerstations in de omgeving